EW9917 Weather Reports


time (UTC)temp
C
wind
direction
speed
KPH
gust
KPH
rain 1hr
cm
rain 24hr
cm
rain mn
cm
humidity
%
barometer
mb
20260503180951 26 359 4.8 8.0 0.00 0.00 0.00 28 1010.0
20260503180311 26 113 1.6 6.4 0.00 0.00 0.00 30 1010.0
20260503175631 26 46 1.6 8.0 0.00 0.00 0.00 30 1010.0
20260503174951 25 91 3.2 8.0 0.00 0.00 0.00 32 1010.0
20260503174312 25 71 3.2 6.4 0.00 0.00 0.00 32 1010.2
20260503173630 25 16 3.2 9.7 0.00 0.00 0.00 34 1010.2
20260503172951 24 12 4.8 9.7 0.00 0.00 0.00 34 1010.2
20260503172311 24 20 4.8 8.0 0.00 0.00 0.00 35 1010.2
20260503171631 24 47 3.2 8.0 0.00 0.00 0.00 36 1010.3
20260503171202 24 284 3.2 8.0 0.00 0.00 0.00 42 1010.2
20260503170312 23 358 1.6 9.7 0.00 0.00 0.00 37 1010.3
20260503150951 17 135 1.6 1.6 0.00 0.00 0.00 68 1010.9
20260503150311 16 147 0.0 1.6 0.00 0.00 0.00 70 1010.9
20260503140311 11 170 1.6 3.2 0.00 0.00 0.00 92 1010.7
20260503130951 10 14 0.0 1.6 0.00 0.00 0.00 94 1010.5
20260503130311 10 272 0.0 0.0 0.00 0.00 0.00 94 1010.5
20260503110311 11 276 0.0 1.6 0.00 0.00 0.00 93 1010.8
20260503090311 12 129 0.0 1.6 0.00 0.00 0.00 91 1011.1
20260503081631 13 244 0.0 0.0 0.00 0.00 0.00 88 1011.2
20260503080951 13 245 0.0 0.0 0.00 0.00 0.00 88 1011.2
20260503080311 13 318 0.0 0.0 0.00 0.00 0.00 88 1011.1
20260503072523 14 82 0.0 1.6 0.00 0.00 0.00 86 1011.2
20260503071630 14 51 0.0 1.6 0.00 0.00 0.00 84 1011.1
20260503070950 14 89 0.0 1.6 0.00 0.00 0.00 85 1011.2
20260503070311 14 180 0.0 1.6 0.00 0.00 0.00 84 1011.2
20260503060311 15 188 0.0 0.0 0.00 0.00 0.13 82 1011.0
20260503054951 15 188 0.0 4.8 0.00 0.00 0.13 82 1011.1
20260503054522 15 231 0.0 3.2 0.00 0.00 0.13 80 1010.9
20260503053631 15 283 1.6 3.2 0.00 0.00 0.13 79 1011.0
20260503052951 15 299 1.6 3.2 0.00 0.00 0.13 78 1011.1
20260503052311 16 308 3.2 3.2 0.00 0.00 0.13 76 1011.2
20260503051631 16 136 0.0 3.2 0.00 0.00 0.13 75 1011.5
20260503050951 16 187 0.0 1.6 0.00 0.00 0.13 75 1011.6
20260503050311 16 335 0.0 3.2 0.00 0.00 0.13 75 1011.3
20260503045631 16 244 0.0 4.8 0.00 0.00 0.13 74 1011.3
20260503044950 16 330 1.6 4.8 0.00 0.00 0.13 73 1011.3
20260503044310 16 256 0.0 4.8 0.00 0.00 0.13 73 1011.3
20260503043631 17 11 3.2 4.8 0.00 0.00 0.13 72 1011.3
20260503042951 17 264 0.0 4.8 0.00 0.00 0.13 72 1011.4
20260503042525 17 19 3.2 4.8 0.00 0.00 0.13 72 1011.4
20260503041631 17 217 0.0 4.8 0.00 0.00 0.13 71 1011.6
20260503040951 17 18 0.0 6.4 0.00 0.00 0.13 70 1011.5
20260503040311 17 3 4.8 6.4 0.00 0.00 0.13 69 1011.4
20260503035631 17 190 0.0 9.7 0.00 0.00 0.13 70 1011.4
20260503034951 17 348 4.8 9.7 0.00 0.00 0.13 70 1011.2
20260503034524 17 347 3.2 6.4 0.00 0.00 0.13 69 1011.2
20260503033631 17 189 0.0 6.4 0.00 0.00 0.13 68 1011.1
20260503032951 17 6 4.8 4.8 0.00 0.00 0.13 67 1010.9
20260503032311 17 186 0.0 3.2 0.00 0.00 0.13 67 1011.2
20260503031631 17 281 0.0 3.2 0.00 0.00 0.13 66 1011.1
20260503030951 18 327 0.0 6.4 0.00 0.00 0.13 64 1011.1
20260503030311 18 180 3.2 11.3 0.00 0.00 0.13 64 1011.1
20260503025631 18 164 4.8 12.9 0.00 0.00 0.13 64 1011.0
20260503025204 18 161 3.2 12.9 0.00 0.00 0.13 63 1011.0
20260503024311 18 159 4.8 12.9 0.00 0.00 0.13 62 1010.9
20260503023631 19 171 3.2 14.5 0.00 0.00 0.13 61 1010.8
20260503022950 20 172 3.2 14.5 0.00 0.00 0.13 60 1010.9
20260503022521 20 162 4.8 19.3 0.00 0.00 0.13 57 1010.7
20260503021630 20 162 6.4 16.1 0.00 0.00 0.13 57 1010.8
20260503020951 20 185 4.8 12.9 0.00 0.00 0.13 58 1010.5
20260503020311 20 174 3.2 8.0 0.00 0.00 0.13 58 1010.3
20260503015630 20 166 3.2 9.7 0.00 0.00 0.13 57 1010.1
20260503014951 20 176 3.2 9.7 0.00 0.00 0.13 58 1010.1
20260503014311 20 174 3.2 8.0 0.00 0.00 0.13 57 1010.0
20260503013631 20 161 4.8 8.0 0.00 0.00 0.13 56 1010.0
20260503012951 20 161 3.2 8.0 0.00 0.00 0.13 56 1010.0
20260503012312 20 169 3.2 6.4 0.00 0.00 0.13 55 1010.0
20260503011631 21 165 3.2 6.4 0.00 0.00 0.13 55 1009.9
20260503010951 21 170 3.2 6.4 0.00 0.00 0.13 54 1009.9
20260503010311 21 170 1.6 6.4 0.00 0.00 0.13 54 1009.9
20260503005631 21 176 1.6 6.4 0.00 0.00 0.13 53 1009.9
20260503004951 21 161 3.2 6.4 0.00 0.00 0.13 52 1009.9
20260503004311 22 110 0.0 1.6 0.00 0.00 0.13 47 1009.9
20260503003630 22 256 0.0 4.8 0.00 0.00 0.13 48 1009.9
20260503002951 21 8 1.6 4.8 0.00 0.00 0.13 48 1009.9
20260503002311 21 106 1.6 4.8 0.00 0.00 0.13 50 1009.9
20260503001631 21 88 1.6 4.8 0.00 0.00 0.13 49 1010.0
20260503001204 21 174 0.0 4.8 0.00 0.00 0.13 49 1010.0
20260503000311 21 353 1.6 4.8 0.00 0.00 0.13 49 1010.1
20260502235630 21 243 1.6 4.8 0.00 0.00 0.13 48 1010.1
20260502234951 22 158 0.0 4.8 0.00 0.00 0.13 47 1010.2
20260502234311 21 206 1.6 3.2 0.00 0.00 0.13 48 1010.3
20260502233632 22 200 0.0 3.2 0.00 0.00 0.13 46 1010.5
20260502232952 22 214 0.0 6.4 0.00 0.00 0.13 48 1010.5
20260502232314 21 313 1.6 6.4 0.00 0.00 0.13 48 1010.6
20260502231631 21 284 3.2 8.0 0.00 0.00 0.13 49 1010.7
20260502230951 21 285 4.8 8.0 0.00 0.00 0.13 49 1010.7
20260502230311 21 281 1.6 8.0 0.00 0.00 0.13 49 1010.7
20260502225841 20 261 1.6 8.0 0.00 0.00 0.13 52 1010.7
20260502224951 20 17 3.2 8.0 0.00 0.00 0.13 50 1010.8
20260502224311 21 278 1.6 6.4 0.00 0.00 0.13 49 1010.9
20260502223631 20 353 3.2 6.4 0.00 0.00 0.13 49 1011.0
20260502222951 20 245 1.6 6.4 0.00 0.00 0.13 50 1011.2
20260502222311 20 266 3.2 6.4 0.00 0.00 0.13 47 1011.4
20260502221845 20 11 3.2 8.0 0.00 0.00 0.13 49 1011.4
20260502220951 21 255 1.6 9.7 0.00 0.00 0.13 48 1011.7
20260502220311 20 323 3.2 9.7 0.00 0.00 0.13 49 1011.8
20260502215631 21 252 0.0 9.7 0.00 0.00 0.13 47 1012.0
20260502214951 20 302 3.2 11.3 0.00 0.00 0.13 50 1012.1
20260502214311 20 197 1.6 3.2 0.00 0.00 0.13 48 1012.1
20260502213631 20 212 1.6 6.4 0.00 0.00 0.13 49 1012.1
20260502212950 18 239 1.6 8.0 0.00 0.00 0.13 54 1012.3
20260502212310 18 301 4.8 8.0 0.00 0.00 0.13 56 1012.5
20260502211631 19 137 1.6 11.3 0.00 0.00 0.13 50 1012.5
20260502210951 18 284 3.2 9.7 0.00 0.00 0.13 53 1012.7
20260502210311 18 195 1.6 9.7 0.00 0.00 0.13 51 1012.8
20260502205632 18 309 1.6 9.7 0.00 0.00 0.13 54 1012.9
20260502204951 17 4 4.8 8.0 0.00 0.00 0.13 51 1013.0
20260502204311 17 177 1.6 6.4 0.00 0.00 0.13 55 1013.1
20260502203844 18 240 0.0 3.2 0.00 0.00 0.13 52 1013.2
20260502203205 17 213 1.6 9.7 0.00 0.00 0.13 55 1013.3
20260502202521 17 82 1.6 9.7 0.00 0.00 0.13 54 1013.3
20260502201841 16 346 3.2 9.7 0.00 0.00 0.13 52 1013.5
20260502200951 17 44 1.6 8.0 0.00 0.00 0.13 51 1013.5
20260502200523 17 216 1.6 9.7 0.00 0.00 0.13 58 1013.4
20260502195631 16 34 4.8 9.7 0.00 0.00 0.13 58 1013.5
20260502194951 16 279 6.4 12.9 0.00 0.00 0.13 61 1013.7
20260502194524 15 255 6.4 12.9 0.00 0.00 0.13 63 1013.9
20260502193631 14 10 3.2 9.7 0.00 0.00 0.13 63 1013.8
20260502192951 13 3 4.8 9.7 0.00 0.00 0.13 64 1014.2
20260502192311 14 7 1.6 9.7 0.00 0.00 0.13 66 1014.1
20260502191842 13 341 3.2 9.7 0.00 0.00 0.13 68 1014.1
20260502191202 13 299 3.2 9.7 0.00 0.00 0.13 75 1014.4
20260502190310 12 267 4.8 8.0 0.00 0.00 0.13 75 1014.5
20260502185630 12 254 3.2 8.0 0.00 0.00 0.13 74 1014.7
20260502184951 12 256 0.0 9.7 0.00 0.00 0.13 77 1014.7
20260502184311 12 270 3.2 9.7 0.00 0.00 0.13 76 1014.6
20260502183846 12 260 3.2 9.7 0.00 0.00 0.13 77 1014.6
20260502182951 12 250 0.0 8.0 0.00 0.00 0.13 80 1014.6
20260502182311 12 282 3.2 6.4 0.00 0.00 0.13 80 1014.6
20260502181631 12 293 1.6 4.8 0.00 0.00 0.13 84 1014.5